Tracking 26308 objects as of 30-Nov-2022
HD Live streaming from Space Station
objects crossing your sky now

COSMOS 1408 DEB

Track COSMOS 1408 DEB now!
10-day predictions


NORAD ID: 51309
Int'l Code: 1982-092BEA
Perigee: 422.0 km
Apogee: 450.5 km
Inclination: 82.6 °
Period: 93.2 minutes
Semi major axis: 6807 km
RCS: Unknown
Launch date: September 16, 1982
Source: Commonwealth of Independent States (former USSR) (CIS)
Launch site: PLESETSK MISSILE AND SPACE COMPLEX (PKMTR)

Note: This is SATELLITE DEBRIS
aabbcc
Your satellite tracking list
Your tracking list is empty




NASA's NSSDC Master Catalog

Two Line Element Set (TLE):
1 51309U 82092BEB 22333.81928508  .00042600  00000-0  86925-3 0  9998
2 51309  82.5766 101.3669 0020895 223.0634 136.8981 15.45770634 48385
Source of the keplerian elements: AFSPC